Simultaneous Nadir Overpasses (SNOs) Predictions

Prediction of SNOs between AQUA and METOP-A Satellite Orbit:

Table of predicted SNOs for the next 14.0 days since TLE Epoch: 4/20/2019
Index Date (AQUA) Time (AQUA) Lat,Lon (AQUA) SZA (AQUA ) Date (METOP-A) Time (METOP-A) Lat,Lon (METOP-A) SZA (METOP-A ) Distance(km) Time Diff (sec)
1 04/21/2019 04:48:44 74.67, 100.25 62.96 04/21/2019 04:47:36 74.57, 98.10 62.97 64.48 68
2 04/21/2019 05:38:18 -75.11, -93.23 116.57 04/21/2019 05:38:07 -75.10, -93.13 116.58 2.94 11
3 04/21/2019 06:27:46 75.13, 74.36 63.44 04/21/2019 06:28:46 75.12, 74.27 63.43 2.73 60
4 04/24/2019 00:22:57 74.69, 166.64 62.04 04/24/2019 00:21:48 74.64, 164.70 62.09 57.56 69
5 04/24/2019 01:12:30 -75.08, -26.71 117.55 04/24/2019 01:12:21 -75.08, -26.79 117.55 2.13 9
6 04/24/2019 02:01:59 75.15, 140.75 62.51 04/24/2019 02:02:59 75.15, 140.74 62.50 0.38 60
7 04/26/2019 19:57:10 74.72,-126.98 61.14 04/26/2019 19:56:01 74.67,-128.84 61.18 55.12 69
8 04/26/2019 20:46:43 -75.11, 39.66 118.45 04/26/2019 20:46:34 -75.10, 39.69 118.45 0.80 9
9 04/26/2019 21:36:12 75.18,-152.88 61.62 04/26/2019 21:37:12 75.17,-152.80 61.60 2.44 60
10 04/29/2019 15:31:22 74.75, -60.61 60.29 04/29/2019 15:30:13 74.68, -62.38 60.31 52.62 69
11 04/29/2019 16:20:55 -75.14, 106.03 119.31 04/29/2019 16:20:46 -75.13, 106.16 119.32 3.87 9
12 04/29/2019 17:10:23 75.16, -86.38 60.71 04/29/2019 17:11:25 75.14, -86.48 60.68 3.38 62
13 05/02/2019 11:05:35 74.79, 5.75 59.46 05/02/2019 11:04:25 74.75, 4.20 59.51 45.53 70
14 05/02/2019 11:55:07 -75.12, 172.52 120.18 05/02/2019 11:55:00 -75.10, 172.48 120.20 2.99 7




NCC Satellite Simultaneous Nadir Overpasses (SNOs) Prediction Service
